Point Hope, AK

5:48 AM AKDT on August 27, 2016 (GMT -0800)
Cape Lisburne LRRS

Weather History for PALU - January, 2014

Change the Weather History Date:

Monday, January 13, 2014

  Actual Average Record
Temperature  
Mean Temperature -9 °F -  
Max Temperature -7 °F 0 °F 35 °F (2013)
Min Temperature -14 °F -7 °F -18 °F (2005)
Degree Days  
Heating Degree Days 74    
Moisture  
Dew Point -15 °F    
Average Humidity 81    
Maximum Humidity 84    
Minimum Humidity 77    
Precipitation  
Precipitation 0.00 in - - ()
Sea Level Pressure  
Sea Level Pressure 29.68 in    
Wind  
Wind Speed 7 mph (NNW)    
Max Wind Speed 10 mph    
Max Gust Speed -    
Visibility 9 miles    
Events Snow    
Averages and records for this station are not official NWS values.
T = Trace of Precipitation, MM = Missing Value Source: NWS Daily Summary

Daily Weather History Graph

Daily Weather History Graph

Search for Another Location

Airport or City:

Trip Planner

Search our weather history database for the weather conditions in past years. The results will help you decide how hot, cold, wet, or windy it might be!

Date:

Astronomy

Jan. 13, 2014 Rise Set
Actual Time 1:16 PM AKST 3:10 PM AKST
Civil Twilight 11:11 AM AKST 5:15 PM AKST
Nautical Twilight 9:46 AM AKST 6:41 PM AKST
Astronomical Twilight 8:34 AM AKST 7:52 PM AKST
Moon 2:10 PM AKST (1/13) 10:42 AM AKST (1/13)
Length of Visible Light 6h 04m
Length of Day
1h 54m
Waxing Gibbous, 95% of the Moon is Illuminated
Jan 13
Waxing Gibbous
Jan 15
Full
Jan 23
Last Quarter
Jan 30
New
Feb 6
First Quarter

Hourly Weather History & Observations

Time (AKST) Temp. Windchill Dew Point Humidity Pressure Visibility Wind Dir Wind Speed Gust Speed Precip Events Conditions
12:22 AM -5.8 °F -23.4 °F -11.2 °F 77% 29.58 in 9.0 mi NNW 10.4 mph - N/A Snow Light Snow
12:55 AM -7.1 °F -23.9 °F -11.7 °F 80% 29.59 in 8.0 mi NNW 9.2 mph - N/A Snow Light Snow
1:42 AM -7.6 °F -25.7 °F -13.0 °F 77% 29.60 in 10.0 mi North 10.4 mph - N/A Snow Light Snow
1:55 AM -8.1 °F -25.3 °F -13.4 °F 78% 29.60 in 9.0 mi NNW 9.2 mph - N/A Snow Light Snow
2:55 AM -8.1 °F -22.7 °F -13.2 °F 79% 29.61 in 9.0 mi NW 6.9 mph - N/A Snow Light Snow
3:42 AM -7.6 °F -22.1 °F -13.0 °F 77% 29.61 in 5.0 mi NW 6.9 mph - N/A Snow Light Snow
3:55 AM -8.0 °F -21.0 °F -12.1 °F 82% 29.61 in 4.0 mi NNW 5.8 mph - N/A Snow Light Snow
4:55 AM -9.4 °F -22.7 °F -13.7 °F 81% 29.62 in 10.0 mi WNW 5.8 mph - N/A Snow Light Snow
5:02 AM -9.4 °F -20.9 °F -13.0 °F 84% 29.62 in 10.0 mi NW 4.6 mph - N/A   Mostly Cloudy
5:22 AM -9.4 °F -20.9 °F -13.0 °F 84% 29.62 in 10.0 mi NW 4.6 mph - N/A Snow Light Snow Showers
5:42 AM -7.6 °F -16.5 °F -13.0 °F 77% 29.63 in 10.0 mi NW 3.5 mph - N/A Snow Light Snow Showers
5:55 AM -8.0 °F -19.2 °F -13.2 °F 78% 29.63 in 10.0 mi NNW 4.6 mph - N/A Snow Light Snow Showers
6:55 AM -7.6 °F -23.4 °F -12.5 °F 79% 29.64 in 10.0 mi NNE 8.1 mph - N/A Snow Light Snow
7:42 AM -7.6 °F -20.6 °F -13.0 °F 77% 29.65 in 10.0 mi North 5.8 mph - N/A   Overcast
7:55 AM -8.5 °F -19.8 °F -13.7 °F 78% 29.65 in 10.0 mi North 4.6 mph - N/A   Overcast
8:55 AM -10.1 °F -21.7 °F -15.0 °F 79% 29.67 in 10.0 mi NW 4.6 mph - N/A   Partly Cloudy
9:55 AM -11.6 °F -25.3 °F -15.5 °F 83% 29.69 in 10.0 mi NW 5.8 mph - N/A   Clear
10:55 AM -12.5 °F -22.1 °F -16.4 °F 82% 29.70 in 10.0 mi NW 3.5 mph - N/A   Partly Cloudy
11:55 AM -13.0 °F -25.1 °F -17.3 °F 81% 29.71 in 10.0 mi NW 4.6 mph - N/A   Clear
12:55 PM -12.8 °F -26.8 °F -17.0 °F 82% 29.73 in 10.0 mi NNW 5.8 mph - N/A   Scattered Clouds
1:55 PM -12.6 °F -24.6 °F -16.6 °F 82% 29.74 in 10.0 mi NNW 4.6 mph - N/A   Mostly Cloudy
2:55 PM -12.3 °F -21.9 °F -16.1 °F 83% 29.74 in 10.0 mi NW 3.5 mph - N/A   Overcast
3:22 PM -11.2 °F -23.0 °F -16.6 °F 77% 29.74 in 10.0 mi NW 4.6 mph - N/A Snow Light Snow Showers
3:42 PM -11.2 °F - -14.8 °F 84% 29.74 in 10.0 mi NNW 2.3 mph - N/A   Overcast
3:55 PM -12.1 °F - -16.1 °F 83% 29.75 in 10.0 mi Variable 1.2 mph - N/A Snow Light Snow Showers
4:02 PM -13.0 °F - -16.6 °F 84% 29.74 in 10.0 mi Variable 1.2 mph - N/A   Overcast
4:55 PM -12.6 °F - -16.4 °F 83% 29.74 in 10.0 mi Variable 1.2 mph - N/A   Overcast
5:02 PM -13.0 °F - -16.6 °F 84% 29.74 in 10.0 mi Variable 1.2 mph - N/A   Overcast
5:55 PM -12.5 °F -22.1 °F -16.1 °F 84% 29.74 in 9.0 mi East 3.5 mph - N/A   Overcast
6:42 PM -11.2 °F -20.6 °F -14.8 °F 84% 29.74 in 10.0 mi NE 3.5 mph - N/A Snow Light Snow Showers
6:55 PM -11.7 °F -28.5 °F -15.5 °F 83% 29.73 in 9.0 mi NNE 8.1 mph - N/A Snow Light Snow Showers
7:55 PM -11.9 °F -28.7 °F -15.5 °F 84% 29.73 in 10.0 mi NNE 8.1 mph - N/A   Overcast
8:42 PM -11.2 °F -26.4 °F -14.8 °F 84% 29.73 in 9.0 mi NNE 6.9 mph - N/A Snow Light Snow Showers
8:55 PM -12.1 °F -27.5 °F -15.9 °F 83% 29.73 in 8.0 mi NE 6.9 mph - N/A   Overcast
9:55 PM -12.8 °F -28.4 °F -16.6 °F 83% 29.71 in 9.0 mi NE 6.9 mph - N/A   Overcast
10:55 PM -13.4 °F -23.1 °F -17.0 °F 84% 29.70 in 10.0 mi NE 3.5 mph - N/A   Overcast
11:55 PM -14.4 °F - -18.4 °F 82% 29.68 in 10.0 mi East 2.3 mph - N/A   Overcast